Weather History for Port Hope, MI

Change the Weather History Date:

Sunday, August 4, 2013

  Actual Average Record
Temperature  
Mean Temperature 62 °F -  
Max Temperature 69 °F 76 °F 91 °F (2012)
Min Temperature 53 °F 61 °F 53 °F (2013)
Degree Days  
Heating Degree Days 4    
Growing Degree Days 12 (Base 50)    
Moisture  
Dew Point 53 °F    
Average Humidity 70    
Maximum Humidity 86    
Minimum Humidity 51    
Precipitation  
Precipitation 0.00 in - - ()
Sea Level Pressure  
Sea Level Pressure 30.10 in    
Wind  
Wind Speed 3 mph (WSW)    
Max Wind Speed 9 mph    
Max Gust Speed -    
Averages and records for this station are not official NWS values.
T = Trace of Precipitation, MM = Missing Value Source: NWS Daily Summary

Daily Weather History Graph

Daily Weather History Graph

Search for Another Location

Airport:

Trip Planner

Search our weather history database for the weather conditions in past years. The results will help you decide how hot, cold, wet, or windy it might be!

Date:

Astronomy

Aug. 04, 2013 Rise Set
Actual Time 6:22 AM EDT 8:50 PM EDT
Civil Twilight 5:50 AM EDT 9:23 PM EDT
Nautical Twilight 5:09 AM EDT 10:03 PM EDT
Astronomical Twilight 4:23 AM EDT 10:49 PM EDT
Moon 4:22 AM EDT (8/4) 7:13 PM EDT (8/4)
Length of Visible Light 15h 33m
Length of Day
14h 28m
Waning Crescent, 5% of the Moon is Illuminated
Aug 4
Waning Crescent
Aug 6
New
Aug 14
First Quarter
Aug 20
Full
Aug 28
Last Quarter

Hourly Weather History & Observations

Time (EDT) Temp. Dew Point Humidity Pressure Visibility Wind Dir Wind Speed Gust Speed Precip Events Conditions
12:51 AM 63.0 °F 53.1 °F 70% 30.03 in - Variable 4.6 mph - N/A   Unknown
1:51 AM 62.1 °F 53.1 °F 72% 30.03 in - Variable 4.6 mph - N/A   Unknown
2:51 AM 62.1 °F 53.1 °F 72% 30.04 in - Variable 5.8 mph - N/A   Unknown
3:51 AM 61.0 °F 53.1 °F 75% 30.04 in - NW 9.2 mph - N/A   Unknown
4:51 AM 61.0 °F 54.0 °F 78% 30.05 in - Variable 3.5 mph - N/A   Unknown
5:51 AM 61.0 °F 55.0 °F 81% 30.06 in - Variable 5.8 mph - N/A   Unknown
6:51 AM 61.0 °F 55.9 °F 83% 30.07 in - Calm Calm - N/A   Unknown
7:51 AM 63.0 °F 55.9 °F 78% 30.08 in - Calm Calm - N/A   Unknown
8:51 AM 64.9 °F 55.9 °F 73% 30.09 in - Calm Calm - N/A   Unknown
9:51 AM 66.9 °F 57.0 °F 70% 30.11 in - Variable 4.6 mph - N/A   Unknown
10:51 AM 66.0 °F 55.9 °F 70% 30.12 in - Calm Calm - N/A   Unknown
11:51 AM 66.9 °F 54.0 °F 63% 30.15 in - Variable 4.6 mph - N/A   Unknown
12:51 PM 66.0 °F 52.0 °F 60% 30.16 in - Variable 6.9 mph - N/A   Unknown
1:51 PM 66.9 °F 53.1 °F 61% 30.16 in - Calm Calm - N/A   Unknown
2:51 PM 68.0 °F 52.0 °F 56% 30.14 in - Calm Calm - N/A   Unknown
3:51 PM 68.0 °F 50.0 °F 52% 30.14 in - Calm Calm - N/A   Unknown
4:51 PM 66.9 °F 48.0 °F 51% 30.14 in - Variable 3.5 mph - N/A   Unknown
5:51 PM 66.9 °F 48.0 °F 51% 30.13 in - Calm Calm - N/A   Unknown
6:51 PM 64.9 °F 50.0 °F 58% 30.12 in - Calm Calm - N/A   Unknown
7:51 PM 62.1 °F 53.1 °F 72% 30.12 in - Calm Calm - N/A   Unknown
8:51 PM 59.0 °F 53.1 °F 81% 30.12 in - Calm Calm - N/A   Unknown
9:51 PM 57.0 °F 52.0 °F 83% 30.12 in - SW 4.6 mph - N/A   Unknown
10:51 PM 55.0 °F 51.1 °F 86% 30.12 in - WSW 4.6 mph - N/A   Unknown
11:51 PM 53.1 °F 48.9 °F 86% 30.10 in - SW 3.5 mph - N/A   Unknown